Location: Chmeli�t?
(49.8978°N, 15.0526°E)
Time: 23:24:23
(UTC+00:00)

Cosmos 2074 Rocket - Pass Details

Date: 03 October 2020
Orbit: 967 x 986 km, 82.9° (Epoch: 24 October)

Event Time Altitude Azimuth Distance (km) Brightness Sun altitude
Rises 21:44:15 0° 350° (N) 3,695 7.8 -42.5°
Reaches altitude 10° 21:46:47 10° 351° (N) 2,740 6.9 -42.7°
Enters shadow 21:49:09 25° 352° (N) 1,884 5.9 -42.8°
